Location: Jenkins
(46.6460°N, 94.3340°W)
Time: 10:34:29
(UTC-06:00)

ARIANE 6 FM1 Upper Stage - Pass Details

Date: 21 August 2025
Orbit: 522 x 611 km, 62.0° (Epoch: 08 December)

Event Time Altitude Azimuth Distance (km) Brightness Sun altitude
Rises 23:30:30 0° 323° (NW) 2,680 7.4 -26.7°
Reaches altitude 10° 23:33:27 10° 346° (NNW) 1,802 6.2 -26.9°
Maximum altitude 23:35:57 16° 25° (NNE) 1,488 5.2 -27.2°
Enters shadow 23:36:59 14° 43° (NE) 1,555 5.1 -27.2°
